DW8482 Tortoreto Alto IT current weather conditions

sailwx.info

Wind from 263

Air temperature 11.1° C
Dewpoint -0.4° C

Last reported at 2014-Oct-23 03:47 UTC.
Time now 2014-Oct-23 05:17 UTC

Location: N 42°48' E 013°54'.
View on Google Maps.

See reports from other nearby stations

  
Tides and Currents Weather Stations Pressure Air Temp Water Temp Dewpoint Dewpoint Depression Visibility Wind Speed Wind Dir Waves Ship Positions
date/time (UTC)wind fromknots sea level pressurealtimeterstation pressurevisibilityair tempwater tempwave heightnotes
2014-Oct-23 03:47 263 11.1
2014-Oct-23 03:42 244 11.1
2014-Oct-23 03:37 244 11.1
2014-Oct-23 03:32 244 11.1
2014-Oct-23 03:27 244 10.6
2014-Oct-23 03:22 244 10.6
2014-Oct-23 03:17 244 1 gusting 4 10.6
2014-Oct-23 03:12 252 10.6
2014-Oct-23 03:07 252 2 gusting 4 10.6
2014-Oct-23 03:02 239 10.6
2014-Oct-23 02:57 239 10.6
2014-Oct-23 02:52 250 10.6
2014-Oct-23 02:47 250 10.6
2014-Oct-23 02:42 250 10.6
2014-Oct-23 02:37 250 10.6
2014-Oct-23 02:32 263 10.6
2014-Oct-23 02:27 254 0 gusting 1 10.6
2014-Oct-23 02:22 254 1 gusting 4 10.6
2014-Oct-23 02:17 252 10.0
2014-Oct-23 02:12 252 5 gusting 5 10.0
2014-Oct-23 02:07 252 3 gusting 5 10.0
2014-Oct-23 02:02 254 1 gusting 2 10.0
2014-Oct-23 01:57 235 10.0
2014-Oct-23 01:52 250 2 gusting 3 10.0
2014-Oct-23 01:47 242 1 gusting 5 10.0
2014-Oct-23 01:42 254 10.6
2014-Oct-23 01:37 220 3 gusting 4 10.6
2014-Oct-23 01:32 244 10.0
2014-Oct-23 01:27 208 0 gusting 3 10.0
2014-Oct-23 01:22 215 0 gusting 5 10.0
2014-Oct-23 01:17 209 2 gusting 6 10.0
2014-Oct-23 01:12 245 4 gusting 4 10.0
2014-Oct-23 01:07 204 4 gusting 5 10.0
2014-Oct-23 01:02 246 5 gusting 7 10.0
2014-Oct-23 00:57 204 0 gusting 9 10.0
2014-Oct-23 00:52 268 10.0
2014-Oct-23 00:47 262 1 gusting 8 10.0
2014-Oct-23 00:42 209 4 gusting 9 10.0
2014-Oct-23 00:37 277 6 gusting 8 10.0
2014-Oct-23 00:32 204 10.0
2014-Oct-23 00:27 223 4 gusting 6 10.0
2014-Oct-23 00:22 261 3 gusting 3 10.0
2014-Oct-23 00:17 294 1 gusting 5 10.0
2014-Oct-23 00:12 250 10.0
2014-Oct-23 00:07 209 10.0
2014-Oct-23 00:02 161 2 gusting 5 10.0
2014-Oct-22 23:57 261 3 gusting 3 9.4
2014-Oct-22 23:52 275 0 gusting 4 9.4
2014-Oct-22 23:47 294 9.4
2014-Oct-22 23:42 239 6 gusting 10 10.0
2014-Oct-22 23:37 248 10 gusting 10 10.0
2014-Oct-22 23:32 259 3 gusting 12 10.0
2014-Oct-22 23:27 242 3 gusting 8 10.0
2014-Oct-22 23:22 246 2 gusting 8 10.0
2014-Oct-22 23:17 244 5 gusting 8 10.6
2014-Oct-22 23:12 223 10.6
2014-Oct-22 23:07 247 6 gusting 7 11.1
2014-Oct-22 23:02 057 10.6
2014-Oct-22 22:57 065 11.1
2014-Oct-22 22:52 055 3 gusting 5 10.6
2014-Oct-22 22:47 049 5 gusting 7 10.6
2014-Oct-22 22:42 045 6 gusting 11 11.1
2014-Oct-22 22:37 045 10 gusting 14 10.6
2014-Oct-22 22:32 057 12 gusting 17 10.6
2014-Oct-22 22:27 049 13 gusting 18 10.6
2014-Oct-22 22:22 027 13 gusting 21 10.6
2014-Oct-22 22:17 018 12 gusting 20 10.6
2014-Oct-22 22:12 065 10 gusting 20 11.1
2014-Oct-22 22:07 070 15 gusting 26 11.1
2014-Oct-22 22:02 051 5 gusting 15 11.1
2014-Oct-22 21:57 060 11 gusting 18 11.1
2014-Oct-22 21:52 028 11 gusting 17 10.6
2014-Oct-22 21:47 038 15 gusting 17 10.6
2014-Oct-22 21:42 028 11 gusting 15 10.6
2014-Oct-22 21:37 053 5 gusting 13 10.6
2014-Oct-22 21:32 057 6 gusting 15 10.6
2014-Oct-22 21:27 046 7 gusting 19 11.1
2014-Oct-22 21:22 025 12 gusting 13 11.1
2014-Oct-22 21:17 023 7 gusting 13 11.1
2014-Oct-22 21:12 026 3 gusting 9 10.6
2014-Oct-22 21:07 023 6 gusting 12 10.0
2014-Oct-22 21:02 026 6 gusting 12 10.0
2014-Oct-22 20:57 005 5 gusting 9 10.0
2014-Oct-22 20:52 035 6 gusting 9 10.0
2014-Oct-22 20:47 340 6 gusting 8 10.0
2014-Oct-22 20:42 340 5 gusting 10 10.0
2014-Oct-22 20:37 310 2 gusting 9 9.4
2014-Oct-22 20:32 036 1 gusting 7 9.4
2014-Oct-22 20:27 045 6 gusting 6 9.4
2014-Oct-22 20:22 355 5 gusting 12 9.4
2014-Oct-22 20:17 294 6 gusting 15 9.4
2014-Oct-22 20:12 294 2 gusting 13 9.4
2014-Oct-22 20:07 318 2 gusting 14 9.4
2014-Oct-22 20:02 268 8 gusting 15 10.0
2014-Oct-22 19:57 313 3 gusting 7 10.0
2014-Oct-22 19:52 302 10.0
2014-Oct-22 19:42 261 0 gusting 12 10.0
2014-Oct-22 19:37 286 10.0
2014-Oct-22 19:32 278 6 gusting 8 10.0
2014-Oct-22 19:27 263 10.0
2014-Oct-22 19:22 265 2 gusting 7 10.0
2014-Oct-22 19:17 248 0 gusting 8 10.0
2014-Oct-22 19:12 248 4 gusting 6 10.0
2014-Oct-22 19:07 252 3 gusting 8 10.0
2014-Oct-22 19:02 269 4 gusting 6 10.0
2014-Oct-22 18:57 232 0 gusting 9 10.0
2014-Oct-22 18:52 231 2 gusting 7 10.0
2014-Oct-22 18:47 252 1 gusting 6 10.0
2014-Oct-22 18:42 261 6 gusting 10 10.0
2014-Oct-22 18:32 227 4 gusting 7 10.0
2014-Oct-22 18:27 246 10.0
2014-Oct-22 18:22 269 2 gusting 7 10.0
2014-Oct-22 18:17 273 4 gusting 6 10.0
2014-Oct-22 18:12 254 0 gusting 8 10.0
2014-Oct-22 18:07 268 4 gusting 7 10.0
2014-Oct-22 18:02 261 3 gusting 7 10.0
2014-Oct-22 17:57 269 6 gusting 8 10.0
2014-Oct-22 17:52 268 4 gusting 7 10.0
2014-Oct-22 17:47 318 3 gusting 11 10.0
2014-Oct-22 17:42 271 0 gusting 11 10.0
2014-Oct-22 17:37 281 1 gusting 8 10.6
2014-Oct-22 17:32 014 10.6
2014-Oct-22 17:27 307 1 gusting 9 10.6
2014-Oct-22 17:22 256 2 gusting 11 10.6
2014-Oct-22 17:17 284 0 gusting 7 10.6
2014-Oct-22 17:12 270 1 gusting 6 10.6
2014-Oct-22 17:07 244 0 gusting 5 10.6
2014-Oct-22 17:02 241 2 gusting 5 10.6
2014-Oct-22 16:57 241 4 gusting 6 10.6
2014-Oct-22 16:52 110 10.6
2014-Oct-22 16:47 269 2 gusting 13 10.6
2014-Oct-22 16:42 263 5 gusting 13 10.6
2014-Oct-22 16:37 242 6 gusting 12 10.6
2014-Oct-22 16:32 277 8 gusting 9 10.6
2014-Oct-22 16:27 239 4 gusting 15 10.6
2014-Oct-22 16:22 288 1 gusting 16 10.6
2014-Oct-22 16:17 252 9 gusting 20 10.6
2014-Oct-22 16:12 326 6 gusting 15 10.6
2014-Oct-22 16:07 277 14 gusting 19 10.6
2014-Oct-22 16:02 257 10 gusting 21 10.6
2014-Oct-22 15:57 005 6 gusting 19 11.1
2014-Oct-22 15:52 317 11 gusting 20 11.1
2014-Oct-22 15:47 259 2 gusting 19 11.1
2014-Oct-22 15:42 287 14 gusting 30 11.1
2014-Oct-22 15:37 317 7 gusting 26 11.7
2014-Oct-22 15:32 268 14 gusting 25 11.7
2014-Oct-22 15:27 263 5 gusting 21 11.7
2014-Oct-22 15:22 311 6 gusting 20 12.2
2014-Oct-22 15:17 296 8 gusting 18 12.2
2014-Oct-22 15:12 248 11 gusting 15 12.8
2014-Oct-22 15:07 273 6 gusting 24 12.8
2014-Oct-22 15:02 253 13 gusting 29 13.3
2014-Oct-22 14:57 055 7 gusting 8 13.9
2014-Oct-22 14:52 050 1 gusting 14 14.4
2014-Oct-22 14:47 040 7 gusting 18 14.4
2014-Oct-22 14:42 013 10 gusting 14 14.4
2014-Oct-22 14:37 14.4
2014-Oct-22 14:32 346 6 gusting 22 14.4
2014-Oct-22 14:27 020 16 gusting 19 14.4
2014-Oct-22 14:22 038 13 gusting 19 14.4
2014-Oct-22 14:17 347 16 gusting 21 14.4
2014-Oct-22 14:12 011 13 gusting 19 14.4
2014-Oct-22 14:07 022 9 gusting 19 14.4
2014-Oct-22 14:02 062 4 gusting 18 14.4
2014-Oct-22 13:57 342 13 gusting 18 15.0
2014-Oct-22 13:52 022 12 gusting 19 14.4
2014-Oct-22 13:47 005 11 gusting 19 14.4
2014-Oct-22 13:42 333 10 gusting 17 14.4
2014-Oct-22 13:37 030 1 gusting 22 14.4
2014-Oct-22 13:32 351 13 gusting 21 14.4
2014-Oct-22 13:27 070 1 gusting 19 15.0
2014-Oct-22 13:22 009 13 gusting 23 15.0
2014-Oct-22 13:17 031 4 gusting 19 15.0
2014-Oct-22 13:12 036 9 gusting 23 15.6
2014-Oct-22 13:07 325 17 gusting 19 15.0
2014-Oct-22 13:02 355 8 gusting 23 15.0
2014-Oct-22 12:57 012 13 gusting 19 15.0
2014-Oct-22 12:52 030 13 gusting 21 15.0
2014-Oct-22 12:47 044 10 gusting 19 15.6
2014-Oct-22 12:42 055 9 gusting 18 15.6
2014-Oct-22 12:37 331 8 gusting 17 15.0
2014-Oct-22 12:32 053 12 gusting 16 15.0
2014-Oct-22 12:27 046 6 gusting 21 15.0
2014-Oct-22 12:22 327 13 gusting 19 15.0
2014-Oct-22 12:17 015 13 gusting 20 15.0
2014-Oct-22 12:12 016 13 gusting 24 15.0
2014-Oct-22 12:07 013 11 gusting 21 15.6
2014-Oct-22 12:02 026 5 gusting 18 15.6
2014-Oct-22 11:57 005 13 gusting 23 15.0
2014-Oct-22 11:52 014 13 gusting 22 15.0
2014-Oct-22 11:47 067 7 gusting 12 15.0
2014-Oct-22 11:42 215 2 gusting 14 15.6
2014-Oct-22 11:37 005 16 gusting 23 15.6
2014-Oct-22 11:32 094 5 gusting 18 16.1
2014-Oct-22 11:27 042 5 gusting 21 15.6
2014-Oct-22 11:22 040 8 gusting 15 15.6
2014-Oct-22 11:17 142 1 gusting 22 16.1
2014-Oct-22 11:12 039 17 gusting 21 16.1
2014-Oct-22 11:07 327 6 gusting 24 16.1
2014-Oct-22 11:02 15.6
2014-Oct-22 10:57 056 12 gusting 20 16.1
2014-Oct-22 10:52 054 10 gusting 16 16.1
2014-Oct-22 10:47 16.1
2014-Oct-22 10:42 015 6 gusting 16 16.1
2014-Oct-22 10:37 325 5 gusting 19 16.1
2014-Oct-22 10:32 017 11 gusting 16 16.1
2014-Oct-22 10:27 013 5 gusting 15 16.1
2014-Oct-22 10:22 047 6 gusting 13 16.1
2014-Oct-22 10:17 005 3 gusting 19 16.1
2014-Oct-22 10:12 041 4 gusting 16 16.1
2014-Oct-22 10:07 284 2 gusting 13 15.6
2014-Oct-22 10:02 014 5 gusting 22 15.6
2014-Oct-22 09:57 327 12 gusting 23 15.0
2014-Oct-22 09:52 285 13 gusting 26 15.0
2014-Oct-22 09:47 310 15 gusting 24 14.4
2014-Oct-22 09:42 288 8 gusting 19 14.4
2014-Oct-22 09:37 011 9 gusting 23 14.4
2014-Oct-22 09:32 294 10 gusting 18 14.4
2014-Oct-22 09:27 331 7 gusting 19 14.4
2014-Oct-22 09:22 317 7 gusting 19 13.9
2014-Oct-22 09:17 311 10 gusting 16 13.9
2014-Oct-22 09:12 282 8 gusting 17 13.3
2014-Oct-22 09:07 317 6 gusting 17 13.3
2014-Oct-22 09:02 250 12.8
2014-Oct-22 08:57 311 7 gusting 13 12.8
2014-Oct-22 08:52 250 11 gusting 17 12.8
2014-Oct-22 08:47 223 10 gusting 15 12.8
2014-Oct-22 08:42 261 2 gusting 18 12.8
2014-Oct-22 08:37 317 6 gusting 23 12.8
2014-Oct-22 08:32 232 5 gusting 25 13.3
2014-Oct-22 08:27 317 25 gusting 30 13.3
2014-Oct-22 08:22 339 23 gusting 30 13.9
2014-Oct-22 08:17 331 12 gusting 38 13.9
2014-Oct-22 08:12 325 4 gusting 34 14.4
2014-Oct-22 08:07 306 27 gusting 38 14.4
2014-Oct-22 08:02 277 20 gusting 33 14.4
2014-Oct-22 07:57 235 12 gusting 35 14.4
2014-Oct-22 07:52 308 18 gusting 39 14.4
2014-Oct-22 07:47 264 11 gusting 31 15.0
2014-Oct-22 07:42 025 6 gusting 32 15.0
2014-Oct-22 07:37 336 15 gusting 32 15.0
2014-Oct-22 07:32 340 11 gusting 32 15.0
2014-Oct-22 07:27 017 13 gusting 38 15.0
2014-Oct-22 07:22 322 23 gusting 33 15.6
2014-Oct-22 07:17 277 13 gusting 36 15.6
2014-Oct-22 07:12 317 22 gusting 30 15.6
2014-Oct-22 07:07 284 15 gusting 39 16.1
2014-Oct-22 07:02 340 24 gusting 39 16.7
2014-Oct-22 06:57 270 20 gusting 37 16.7
2014-Oct-22 06:52 290 18 gusting 39 17.2
2014-Oct-22 06:47 283 12 gusting 25 17.8
2014-Oct-22 06:42 018 6 gusting 14 18.3
2014-Oct-22 06:37 18.9
2014-Oct-22 06:32 041 10 gusting 13 20.0
2014-Oct-22 06:27 263 6 gusting 7 20.0
2014-Oct-22 06:22 275 2 gusting 5 19.4
2014-Oct-22 06:17 324 2 gusting 5 19.4
2014-Oct-22 06:12 314 4 gusting 6 20.0
2014-Oct-22 06:07 296 6 gusting 7 20.0
2014-Oct-22 06:02 232 1 gusting 9 20.0
2014-Oct-22 05:57 295 11 gusting 12 20.0
2014-Oct-22 05:52 292 7 gusting 13 20.6
2014-Oct-22 05:47 277 6 gusting 12 21.1
2014-Oct-22 05:42 324 4 gusting 13 21.1
2014-Oct-22 05:37 296 3 gusting 6 21.1
2014-Oct-22 05:32 025 0 gusting 8 21.1
2014-Oct-22 05:27 275 6 gusting 6 21.1
2014-Oct-22 05:22 267 21.1
2014-Oct-22 05:17 263 3 gusting 6 21.1
2014-Oct-22 05:12 275 3 gusting 7 21.1
2014-Oct-22 05:07 294 2 gusting 9 21.1
2014-Oct-22 05:02 340 6 gusting 8 21.1
2014-Oct-22 04:57 295 4 gusting 10 20.6
2014-Oct-22 04:52 324 5 gusting 8 20.6
2014-Oct-22 04:47 332 2 gusting 7 20.0
2014-Oct-22 04:42 325 5 gusting 7 20.0
2014-Oct-22 04:37 044 20.0
2014-Oct-22 04:32 244 20.6
2014-Oct-22 04:27 214 3 gusting 7 20.6
2014-Oct-22 04:22 226 20.6
2014-Oct-22 04:17 294 0 gusting 5 21.1
2014-Oct-22 04:12 234 21.1
2014-Oct-22 04:07 244 21.1
2014-Oct-22 04:02 242 4 gusting 9 21.1
2014-Oct-22 03:57 239 8 gusting 12 21.1
2014-Oct-22 03:52 237 8 gusting 11 21.1
2014-Oct-22 03:47 251 4 gusting 11 21.1
2014-Oct-22 03:42 248 6 gusting 10 20.6
2014-Oct-22 03:37 211 2 gusting 9 20.0
2014-Oct-22 03:32 228 8 gusting 8 19.4
2014-Oct-22 03:27 230 3 gusting 6 19.4
2014-Oct-22 03:22 259 3 gusting 8 19.4
2014-Oct-22 03:17 215 2 gusting 8 19.4
2014-Oct-22 03:12 247 6 gusting 6 18.9
2014-Oct-22 03:07 257 4 gusting 5 18.9
2014-Oct-22 03:02 232 3 gusting 6 18.3
2014-Oct-22 02:57 265 6 gusting 6 18.3
2014-Oct-22 02:52 226 2 gusting 6 18.3
2014-Oct-22 02:47 267 4 gusting 5 18.3
2014-Oct-22 02:42 305 1 gusting 1 18.3
2014-Oct-22 02:37 317 18.9
2014-Oct-22 02:32 187 18.9
2014-Oct-22 02:27 229 0 gusting 6 18.9
2014-Oct-22 02:22 211 3 gusting 5 19.4
2014-Oct-22 02:17 047 20.6
2014-Oct-22 02:12 047 21.7
2014-Oct-22 02:07 235 21.7
2014-Oct-22 02:02 240 21.7
2014-Oct-22 01:57 192 21.1
2014-Oct-22 01:52 241 2 gusting 7 21.1
2014-Oct-22 01:47 234 21.1
2014-Oct-22 01:42 221 20.6
2014-Oct-22 01:37 264 0 gusting 6 20.0
2014-Oct-22 01:32 291 20.0
2014-Oct-22 01:27 264 4 gusting 4 20.0
2014-Oct-22 01:22 178 20.0
2014-Oct-22 01:17 178 20.0
2014-Oct-22 01:12 178 20.0
2014-Oct-22 01:07 162 19.4
2014-Oct-22 01:02 150 19.4
2014-Oct-22 00:57 150 19.4
2014-Oct-22 00:52 150 18.9
2014-Oct-22 00:47 150 18.9
2014-Oct-22 00:42 161 18.9
2014-Oct-22 00:37 173 18.3
2014-Oct-22 00:32 173 18.3
2014-Oct-22 00:27 164 1 gusting 4 18.9
2014-Oct-22 00:22 163 1 gusting 3 18.9
2014-Oct-22 00:17 173 18.3
2014-Oct-22 00:12 173 1 gusting 3 18.3
2014-Oct-22 00:07 205 3 gusting 4 17.8
2014-Oct-22 00:02 248 17.8
2014-Oct-21 23:57 254 4 gusting 5 18.3
2014-Oct-21 23:52 241 18.3
2014-Oct-21 23:47 241 18.9
2014-Oct-21 23:42 241 19.4
2014-Oct-21 23:37 241 19.4
2014-Oct-21 23:32 255 19.4
2014-Oct-21 23:27 207 18.9
2014-Oct-21 23:22 217 2 gusting 3 18.9
2014-Oct-21 23:17 126 18.3
2014-Oct-21 23:12 198 17.8
2014-Oct-21 23:07 198 17.8
2014-Oct-21 23:02 238 17.8
2014-Oct-21 22:57 194 4 gusting 4 17.2
2014-Oct-21 22:52 214 2 gusting 3 17.2
2014-Oct-21 22:47 202 17.2
2014-Oct-21 22:42 269 5 gusting 4 17.2
2014-Oct-21 22:37 209 2 gusting 6 17.8
2014-Oct-21 22:32 190 3 gusting 4 17.8
2014-Oct-21 22:27 040 17.8
2014-Oct-21 22:22 097 17.8
2014-Oct-21 22:17 074 17.8
2014-Oct-21 22:12 203 18.3
2014-Oct-21 22:07 161 18.3
2014-Oct-21 22:02 167 18.3
2014-Oct-21 21:57 155 18.3
2014-Oct-21 21:52 164 0 gusting 3 17.8
2014-Oct-21 21:47 164 17.8
2014-Oct-21 21:42 164 17.8
2014-Oct-21 21:37 165 3 gusting 4 17.8
2014-Oct-21 21:32 169 3 gusting 3 17.8
2014-Oct-21 21:27 132 17.8
2014-Oct-21 21:22 130 17.8
2014-Oct-21 21:17 142 17.8
2014-Oct-21 21:12 137 17.8
2014-Oct-21 21:07 153 0 gusting 2 17.8
2014-Oct-21 21:02 113 17.8
2014-Oct-21 20:57 086 17.8
2014-Oct-21 20:52 128 0 gusting 2 18.3
2014-Oct-21 20:47 160 18.3
2014-Oct-21 20:37 103 18.3
2014-Oct-21 20:32 144 18.3
2014-Oct-21 20:27 078 18.3
2014-Oct-21 20:22 078 18.3
2014-Oct-21 20:17 082 18.3
2014-Oct-21 20:12 125 0 gusting 2 18.3
2014-Oct-21 20:07 121 18.3
2014-Oct-21 20:02 043 18.3
2014-Oct-21 19:57 112 18.3
2014-Oct-21 19:52 077 0 gusting 5 18.3
2014-Oct-21 19:47 092 4 gusting 6 18.3
2014-Oct-21 19:42 099 18.3
2014-Oct-21 19:37 130 2 gusting 4 18.9
2014-Oct-21 19:32 105 0 gusting 2 18.9
2014-Oct-21 19:27 108 18.9
2014-Oct-21 19:22 053 18.9
2014-Oct-21 19:17 136 0 gusting 2 18.9
2014-Oct-21 19:12 088 18.9
2014-Oct-21 19:07 065 18.9
2014-Oct-21 19:02 112 1 gusting 5 18.9
2014-Oct-21 18:57 069 18.9
2014-Oct-21 18:52 054 0 gusting 4 18.9
2014-Oct-21 18:47 084 18.9
2014-Oct-21 18:42 118 1 gusting 2 18.9
2014-Oct-21 18:37 092 18.9
2014-Oct-21 18:32 114 2 gusting 2 18.9
2014-Oct-21 18:27 117 2 gusting 2 18.9
2014-Oct-21 18:22 109 0 gusting 1 18.9
2014-Oct-21 18:17 088 18.9
2014-Oct-21 18:12 119 18.9
2014-Oct-21 18:07 099 18.9
2014-Oct-21 18:02 123 1 gusting 2 18.9
2014-Oct-21 17:57 134 18.9
2014-Oct-21 17:52 163 18.9
2014-Oct-21 17:47 256 19.4
2014-Oct-21 17:42 256 19.4
2014-Oct-21 17:37 256 18.9
2014-Oct-21 17:32 269 2 gusting 3 18.9
2014-Oct-21 17:27 252 18.9
2014-Oct-21 17:22 252 0 gusting 2 18.9
2014-Oct-21 17:17 252 2 gusting 3 18.9
2014-Oct-21 17:12 236 18.9
2014-Oct-21 17:07 240 18.9
2014-Oct-21 17:02 102 18.9
2014-Oct-21 16:57 102 1 gusting 2 18.9
2014-Oct-21 16:52 070 18.9
2014-Oct-21 16:47 070 18.9
2014-Oct-21 16:42 140 18.9
2014-Oct-21 16:37 140 18.9
2014-Oct-21 16:32 128 18.9
2014-Oct-21 16:27 013 18.9
2014-Oct-21 16:22 215 18.9
2014-Oct-21 16:17 110 18.9
2014-Oct-21 16:12 098 19.4
2014-Oct-21 16:07 057 19.4
2014-Oct-21 16:02 126 19.4
2014-Oct-21 15:57 009 19.4
2014-Oct-21 15:52 163 0 gusting 3 19.4
2014-Oct-21 15:47 083 19.4
2014-Oct-21 15:42 112 20.0
2014-Oct-21 15:37 134 0 gusting 1 20.0
2014-Oct-21 15:32 121 0 gusting 4 20.0
2014-Oct-21 15:27 074 2 gusting 4 20.0
2014-Oct-21 15:22 063 1 gusting 6 20.0
2014-Oct-21 15:17 097 4 gusting 5 20.0
2014-Oct-21 15:12 080 2 gusting 6 20.0
2014-Oct-21 15:07 114 4 gusting 6 20.0
2014-Oct-21 15:02 128 2 gusting 6 20.0
2014-Oct-21 14:57 134 5 gusting 6 20.0
2014-Oct-21 14:37 094 20.6
2014-Oct-21 14:32 094 1 gusting 5 20.6
2014-Oct-21 14:27 089 2 gusting 4 20.6
2014-Oct-21 14:22 065 2 gusting 4 20.6
2014-Oct-21 14:17 120 1 gusting 5 20.6
2014-Oct-21 14:12 080 2 gusting 6 20.6
2014-Oct-21 14:07 070 4 gusting 7 20.6
2014-Oct-21 14:02 076 6 gusting 6 20.6
2014-Oct-21 13:57 066 6 gusting 6 20.6
2014-Oct-21 13:37 079 4 gusting 6 20.6
2014-Oct-21 13:32 088 4 gusting 7 21.1
2014-Oct-21 13:27 062 4 gusting 6 21.1
2014-Oct-21 13:22 067 6 gusting 7 21.1
2014-Oct-21 13:17 050 6 gusting 6 21.7
2014-Oct-21 13:12 051 5 gusting 6 21.7
2014-Oct-21 13:07 058 6 gusting 6 21.1
2014-Oct-21 13:02 066 4 gusting 6 21.1
2014-Oct-21 12:57 059 4 gusting 7 21.7
2014-Oct-21 12:52 082 5 gusting 7 21.7
2014-Oct-21 12:47 079 4 gusting 6 21.7
2014-Oct-21 12:42 063 4 gusting 7 21.7
2014-Oct-21 12:37 052 6 gusting 7 21.7
2014-Oct-21 12:32 057 6 gusting 6 22.2
2014-Oct-21 12:27 090 21.7
2014-Oct-21 12:22 051 5 gusting 6 22.2
2014-Oct-21 12:17 062 4 gusting 7 22.2
2014-Oct-21 12:12 055 5 gusting 7 22.2
2014-Oct-21 12:07 053 4 gusting 6 22.2
2014-Oct-21 12:02 067 6 gusting 7 22.2
2014-Oct-21 11:57 063 4 gusting 7 22.2
2014-Oct-21 11:52 058 6 gusting 6 22.2
2014-Oct-21 11:47 061 6 gusting 6 22.2
2014-Oct-21 11:42 040 5 gusting 6 22.2
2014-Oct-21 11:37 060 4 gusting 8 22.2
2014-Oct-21 11:32 067 2 gusting 6 22.2
2014-Oct-21 11:27 058 4 gusting 7 21.7
2014-Oct-21 11:22 065 6 gusting 7 21.7
2014-Oct-21 11:17 062 6 gusting 6 22.2
2014-Oct-21 11:12 055 5 gusting 7 22.2
2014-Oct-21 11:07 059 7 gusting 7 22.8
2014-Oct-21 11:02 056 4 gusting 6 22.8
2014-Oct-21 10:57 049 5 gusting 5 22.2
2014-Oct-21 10:52 071 3 gusting 6 22.8
2014-Oct-21 10:47 052 5 gusting 6 22.8
2014-Oct-21 10:42 059 2 gusting 6 22.8
2014-Oct-21 10:37 059 3 gusting 6 22.2
2014-Oct-21 10:32 069 4 gusting 4 22.2
2014-Oct-21 10:27 076 2 gusting 5 21.7
2014-Oct-21 10:22 069 4 gusting 7 22.2
2014-Oct-21 10:17 064 4 gusting 6 22.2
2014-Oct-21 10:12 061 3 gusting 6 22.2
2014-Oct-21 10:07 069 4 gusting 4 22.2
2014-Oct-21 10:02 066 21.7
2014-Oct-21 09:57 060 21.7
2014-Oct-21 09:52 069 3 gusting 6 21.7
2014-Oct-21 09:47 057 4 gusting 4 21.7
2014-Oct-21 09:42 064 1 gusting 3 21.7
2014-Oct-21 09:37 065 21.7
2014-Oct-21 09:32 061 3 gusting 6 21.7
2014-Oct-21 09:27 056 3 gusting 6 22.2
2014-Oct-21 09:22 076 1 gusting 4 22.2
2014-Oct-21 09:17 067 2 gusting 4 22.8
2014-Oct-21 09:12 112 2 gusting 4 22.8
2014-Oct-21 09:07 077 21.7
2014-Oct-21 09:02 061 21.1
2014-Oct-21 08:57 070 3 gusting 6 22.2
2014-Oct-21 08:52 180 22.2
2014-Oct-21 08:47 140 1 gusting 6 22.2
2014-Oct-21 08:42 141 2 gusting 4 22.2
2014-Oct-21 08:37 090 2 gusting 2 21.7
2014-Oct-21 08:32 157 21.7
2014-Oct-21 08:27 157 21.1
2014-Oct-21 08:22 242 21.7
2014-Oct-21 08:17 242 0 gusting 4 21.7
2014-Oct-21 08:12 268 1 gusting 2 21.1
2014-Oct-21 08:07 255 21.1
2014-Oct-21 08:02 254 1 gusting 2 21.1
2014-Oct-21 07:57 219 21.1
2014-Oct-21 07:52 227 20.6
2014-Oct-21 07:47 250 20.0
2014-Oct-21 07:42 242 0 gusting 7 19.4
2014-Oct-21 07:37 249 0 gusting 10 19.4
2014-Oct-21 07:32 257 6 gusting 10 18.9
2014-Oct-21 07:27 261 5 gusting 7 18.9
2014-Oct-21 07:22 255 3 gusting 8 18.3
2014-Oct-21 07:17 248 5 gusting 8 18.3
2014-Oct-21 07:12 246 6 gusting 8 18.3
2014-Oct-21 07:07 231 5 gusting 6 18.3
2014-Oct-21 07:02 232 6 gusting 8 18.3
2014-Oct-21 06:57 241 6 gusting 8 18.3
2014-Oct-21 06:52 242 6 gusting 6 18.3
2014-Oct-21 06:47 226 4 gusting 5 18.3
2014-Oct-21 06:42 223 1 gusting 4 18.3
2014-Oct-21 06:37 236 3 gusting 4 17.8
2014-Oct-21 06:32 245 4 gusting 4 17.8
2014-Oct-21 06:27 245 3 gusting 4 17.8
2014-Oct-21 06:22 265 2 gusting 2 17.2
2014-Oct-21 06:17 259 2 gusting 4 17.2
2014-Oct-21 06:12 259 2 gusting 3 17.8
2014-Oct-21 06:07 259 2 gusting 3 17.8
2014-Oct-21 06:02 259 3 gusting 3 17.8
2014-Oct-21 05:57 259 2 gusting 3 17.2
2014-Oct-21 05:52 259 2 gusting 3 17.2
2014-Oct-21 05:47 264 2 gusting 3 16.7
2014-Oct-21 05:42 255 2 gusting 3 16.7
2014-Oct-21 05:37 255 2 gusting 4 16.7
2014-Oct-21 05:32 255 2 gusting 3 16.7
2014-Oct-21 05:27 257 2 gusting 4 16.7
2014-Oct-21 05:22 257 3 gusting 4 16.7
2014-Oct-21 05:17 257 3 gusting 3 16.7
2014-Oct-21 05:12 257 2 gusting 4 17.2
2014-Oct-21 05:07 257 4 gusting 5 17.8
2014-Oct-21 05:02 261 1 gusting 1 17.8